Flag for Italy Weather past 2 weeks in Messina, Italy

Now
73 °F

Partly cloudy.


Feels Like: 75 °F
Forecast: 72 / 83 °F
Wind: 8 mph from Northeast

Location: Reggio Calabria

Current Time: Jul 24, 2014 at 3:03:42 AM

Latest Report: Jul 23, 2014 at 11:50 PM


Visibility: N/A

Pressure: 29.89 "Hg

Humidity: 74%

Dew point: 64 °F

Location of MessinaLocation

Historic Weather in Messina — Graph

°F

Messina temperature yesterday

Maximum temperature yesterday: 81 °F (at 2:50 PM)
Minimum temperature yesterday: 73 °F (at 5:50 AM)
Average temperature yesterday: 77 °F

Past Weeks' High & Low Weather Summary

 TemperatureHumidityPressure
High91 °F (Jul 20, 11:50 AM)89% (Jul 15, 12:50 PM)30.04 "Hg (Jul 15, 12:50 PM)
Low68 °F (Jul 10, 5:50 AM)23% (Jul 21, 7:50 AM)29.74 "Hg (Jul 23, 6:50 AM)
Average79 °F56%29.92 "Hg
* Reported Jul 8 11:50 PM — Jul 23 11:50 PM, Messina, Weather by CustomWeather, © 2014

Note: Actual official high and low records may vary slightly from our data, if they occured in-between our weather recording intervals... More about our weather records

Advertising

Messina weather history for previous 24 hours

 ConditionsComfort  
Time TempWeatherWind HumidityBarometerVisibility
11:50 PM
Jul 23
73 °FPartly cloudy.8 mph74%29.89 "HgN/A
10:50 PM73 °FPartly cloudy.6 mph78%29.86 "HgN/A
9:50 PM75 °FPartly cloudy.7 mph74%29.86 "HgN/A
8:50 PM73 °FBroken clouds.10 mph78%29.86 "HgN/A
7:50 PM73 °FBroken clouds.16 mph83%29.83 "HgN/A
6:50 PM75 °FLight rain. Broken clouds.15 mph78%29.83 "HgN/A
5:50 PM77 °FLight rain. Broken clouds.16 mph69%29.83 "HgN/A
4:50 PM79 °FScattered clouds.16 mph58%29.83 "HgN/A
3:50 PM81 °FScattered clouds.16 mph58%29.80 "HgN/A
2:50 PM81 °FScattered clouds.15 mph51%29.80 "HgN/A
11:50 AM79 °FScattered clouds.15 mph61%29.80 "HgN/A
10:50 AM79 °FScattered clouds.13 mph61%29.80 "HgN/A
9:50 AM79 °FScattered clouds.5 mph54%29.77 "HgN/A
7:50 AM79 °FScattered clouds.8 mph51%29.77 "HgN/A
6:50 AM75 °FPassing clouds.5 mph61%29.74 "HgN/A
5:50 AM73 °FPassing clouds.6 mph69%29.77 "HgN/A
Weather by CustomWeather, © 2014

See weather overviewHow to use our weather pages